[[{"header":{"parameterUnit":"m.s-1","parameterCategory":1,"la1":30.2991,"la2":30.254,"lo1":-89.0895,"lo2":-89.0444,"dy":0.0017,"dx":0.0017,"nx":28,"ny":28,"refTime":"2024-10-10T03:00:00:Z","depth":0,"parameterNumber":2,"parameterNumberName":"U-component_of_WINDS"},"data":[0,0,0,0,0,0,0,0,0,0,0,0,0,0,0,0,0,0,0,0,0,0,0,0,0,0,0,0,0,0,0,0,0,0,0,0,0,0,0,0,0,0,0,0,0,0,0,0,0,0,0,0,0,0,0,0,0,0,-2.4821,-2.4822,0,-2.4907,-2.4908,-2.4908,-2.4816,-2.4812,-2.4809,-2.4805,-2.4897,-2.4903,-2.4908,0,0,0,0,0,0,0,0,0,0,0,0,0,-2.4582,-2.4587,-2.4821,-2.4822,-2.4823,-2.4906,-2.4908,-2.4909,-2.4816,-2.4812,-2.4808,-2.4804,-2.4895,-2.4902,-2.4909,0,0,0,0,0,0,0,0,0,0,0,0,0,-2.4679,-2.4589,-2.4821,-2.4787,-2.4785,-2.4906,-2.4908,-2.4909,-2.4817,-2.4812,-2.4807,-2.4802,-2.4893,-2.4901,-2.491,-2.507,0,0,-2.4936,-2.494,0,0,0,0,0,0,0,0,-2.4674,-2.4688,-2.4791,-2.479,-2.4788,-2.4845,-2.4857,-2.4963,-2.4819,-2.4805,-2.4805,-2.4799,-2.4884,-2.4893,-2.4921,-2.5074,-2.5078,-2.4937,-2.4942,-2.4946,-2.4949,0,0,0,0,0,0,0,-2.4667,-2.4684,-2.4855,-2.4793,-2.4791,-2.4769,-2.4777,-2.4877,-2.4874,-2.4806,-2.4799,-2.4811,-2.4882,-2.4913,-2.4923,-2.508,-2.4937,-2.4945,-2.495,-2.4953,-2.5369,-2.5375,0,0,0,0,0,0,-2.4664,-2.4679,-2.4852,-2.4858,-2.4716,-2.4778,-2.4786,-2.4832,-2.4872,-2.4873,-2.4815,-2.4806,-2.4901,-2.4913,-2.4926,-2.5117,-2.4946,-2.4954,-2.4959,-2.5363,-2.537,-2.5377,0,0,0,0,0,0,-2.4659,-2.468,-2.4849,-2.4766,-2.4786,-2.4787,-2.4839,-2.4837,-2.4867,-2.4879,-2.4879,-2.4847,-2.4897,-2.4913,-2.5035,-2.5119,-2.4958,-2.4966,-2.5356,-2.5366,-2.5374,-2.55,0,0,0,0,0,0,-2.4652,-2.4679,-2.4739,-2.4768,-2.4791,-2.4956,-2.4845,-2.4842,-2.4882,-2.4871,-2.4909,-2.491,-2.4894,-2.5022,-2.5043,-2.5128,-2.4973,-2.5349,-2.536,-2.5371,-2.5489,-2.5512,-2.5532,0,0,0,0,0,-2.4644,-2.4772,-2.4742,-2.4764,-2.4866,-2.4961,-2.4974,-2.4952,-2.4889,-2.495,-2.4958,-2.4909,-2.5105,-2.5035,-2.5058,-2.5147,-2.5344,-2.5357,-2.537,-2.5479,-2.5507,-2.5532,0,0,0,0,0,0,-2.4754,-2.4775,-2.4743,-2.4884,-2.4921,-2.4945,-2.5022,-2.4983,-2.504,-2.5028,-2.4999,-2.5009,-2.5138,-2.5154,-2.5075,-2.5304,-2.5214,-2.5233,-2.5289,-2.5317,-2.5338,-2.5333,-2.498,0,0,0,0,0,-2.4794,-2.4868,-2.4883,-2.5006,-2.5026,-2.5021,-2.5061,-2.5041,-2.5079,-2.5095,-2.5112,-2.5152,-2.5222,-2.527,-2.5336,-2.5489,-2.5497,-2.5561,-2.5583,-2.5601,-2.5618,-2.5702,-2.5731,-2.542,-2.542,-2.542,0,0,-2.4879,-2.49,-2.4949,-2.5029,-2.5055,-2.5134,-2.5035,-2.5122,-2.5181,-2.5109,-2.5224,-2.5238,-2.5281,-2.5419,-2.5481,-2.5437,-2.5706,-2.5618,-2.5632,-2.564,-2.5719,-2.5748,-2.5774,-2.5429,-2.5427,-2.5426,0,0,-2.5074,-2.5096,-2.5202,-2.523,-2.5271,-2.5266,-2.5291,-2.5321,-2.5327,-2.5442,-2.539,-2.5459,-2.5581,-2.5615,-2.5647,-2.5854,-2.5812,-2.5876,-2.5992,-2.6074,-2.6098,-2.612,-2.6196,-2.6223,-2.5893,-2.5893,-2.5893,0,-2.5175,-2.529,-2.5261,-2.5352,-2.539,-2.5326,-2.5433,-2.5462,-2.5524,-2.5552,-2.55,-2.5652,-2.5677,-2.5822,-2.5873,-2.5901,-2.593,-2.5873,-2.6097,-2.6118,-2.6138,-2.621,-2.6238,-2.5901,-2.59,-2.5899,-2.5898,0,-2.5413,-2.5494,-2.5574,-2.5633,-2.5679,-2.5778,-2.5766,-2.5816,-2.5791,-2.5792,-2.5911,-2.5937,-2.6008,-2.604,-2.6017,-2.6184,-2.6155,-2.6101,-2.6011,-2.6176,-2.6243,-2.627,-2.5912,-2.5909,-2.5907,-2.5905,0,0,-2.5682,-2.5722,-2.5753,-2.5779,-2.5819,-2.5882,-2.5978,-2.6045,-2.609,-2.6133,-2.6215,-2.6319,-2.6269,-2.6307,-2.6287,-2.6358,-2.6523,-2.6295,-2.6296,-2.6339,-2.6709,-2.6752,-2.6784,-2.6494,-2.6499,-2.6503,-2.6706,0,-2.588,-2.6045,-2.6021,-2.6182,-2.6257,-2.6196,-2.628,-2.6315,-2.6318,-2.6383,-2.6387,-2.6462,-2.639,-2.6412,-2.648,-2.6488,-2.6597,-2.6473,-2.6571,-2.6575,-2.6565,-2.6819,-2.6864,-2.7055,-2.6732,-2.6737,-2.674,0,-2.6133,-2.6184,-2.6352,-2.638,-2.6411,-2.6487,-2.6547,-2.6609,-2.6647,-2.6644,-2.6686,-2.6653,-2.675,-2.6656,-2.6792,-2.6708,-2.6746,-2.6756,-2.6763,-2.6774,-2.667,-2.6838,-2.7115,-2.7145,-2.678,-2.6777,-2.6774,0,-2.6315,-2.6426,-2.6541,-2.6565,-2.66,-2.6655,-2.6673,-2.6705,-2.6747,-2.68,-2.6827,-2.6891,-2.6926,-2.6977,-2.6963,-2.6895,-2.7102,-2.7007,-2.7105,-2.7106,-2.7154,-2.7151,-2.7443,-2.7175,-2.7174,-2.7173,-2.7173,0,-2.6539,-2.6645,-2.6623,-2.6694,-2.6811,-2.6782,-2.6899,-2.6909,-2.6938,-2.7011,-2.6962,-2.7032,-2.7008,-2.7077,-2.7066,-2.7181,-2.7197,-2.7199,-2.7196,-2.7205,-2.7205,-2.7232,-2.7219,-2.7181,-2.7179,-2.7178,-2.7177,0,-2.6764,-2.6753,-2.6875,-2.6897,-2.6905,-2.6991,-2.7011,-2.7078,-2.7077,-2.717,-2.719,-2.7189,-2.7267,-2.7257,-2.7345,-2.7338,-2.7481,-2.746,-2.7469,-2.7465,-2.7564,-2.7556,-2.7885,-2.7928,-2.763,-2.7633,-2.7635,0,-2.6909,-2.6989,-2.7019,-2.7064,-2.7085,-2.7158,-2.72,-2.7174,-2.7221,-2.727,-2.7332,-2.7405,-2.7463,-2.7591,-2.76,-2.7667,-2.7649,-2.7759,-2.7659,-2.7666,-2.7653,-2.765,-2.7658,-2.778,-2.7784,-2.7786,-2.7789,0,-2.7169,-2.7159,-2.7221,-2.7282,-2.7333,-2.738,-2.7422,-2.7462,-2.7441,-2.7495,-2.7574,-2.7619,-2.7708,-2.7782,-2.7845,-2.7864,-2.7825,-2.7819,-2.7846,-2.7858,-2.7861,-2.7863,-2.7525,-2.7813,-2.781,-2.7809,-2.7807,-2.7806,-2.736,-2.7428,-2.746,-2.7531,-2.7559,-2.76,-2.7664,-2.767,-2.7735,-2.7805,-2.7786,-2.7876,-2.7912,-2.7992,-2.8018,-2.8089,-2.8048,-2.8087,-2.8097,-2.8107,-2.812,-2.7847,-2.81,-2.8099,-2.8098,-2.8098,-2.8097,0,-2.7619,-2.7636,-2.7701,-2.7761,-2.7817,-2.7771,-2.7815,-2.7866,-2.7945,-2.7981,-2.8038,-2.813,-2.8201,-2.8214,-2.8283,-2.8338,-2.8321,-2.8357,-2.8354,-2.8359,-2.8151,-2.8122,-2.8369,-2.8369,-2.8369,-2.8369,-2.8369,-2.8369,-2.776,-2.7874,-2.7868,-2.7995,-2.8012,-2.8098,-2.8128,-2.8165,-2.8194,-2.8298,-2.8356,-2.8363,-2.8391,-2.8461,-2.8525,-2.8527,-2.8556,-2.86,-2.8595,-2.8401,-2.8374,-2.8348,-2.8321,-2.8606,-2.8606,-2.8798,-2.8799,-2.8801]},{"header":{"parameterUnit":"m.s-1","parameterCategory":1,"la1":30.2991,"la2":30.254,"lo1":-89.0895,"lo2":-89.0444,"dy":0.0017,"dx":0.0017,"nx":28,"ny":28,"refTime":"2024-10-10T03:00:00:Z","depth":0,"parameterNumber":3,"parameterNumberName":"V-component_of_WINDS"},"data":[0,0,0,0,0,0,0,0,0,0,0,0,0,0,0,0,0,0,0,0,0,0,0,0,0,0,0,0,0,0,0,0,0,0,0,0,0,0,0,0,0,0,0,0,0,0,0,0,0,0,0,0,0,0,0,0,0,0,-3.8639,-3.864,0,-3.8669,-3.8669,-3.867,-3.8606,-3.8603,-3.8601,-3.8599,-3.8628,-3.8631,-3.8634,0,0,0,0,0,0,0,0,0,0,0,0,0,-3.8524,-3.8527,-3.8639,-3.864,-3.864,-3.8669,-3.8669,-3.867,-3.8606,-3.8603,-3.8601,-3.8599,-3.8628,-3.8631,-3.8634,0,0,0,0,0,0,0,0,0,0,0,0,0,-3.8566,-3.8528,-3.8639,-3.8612,-3.8609,-3.8669,-3.8669,-3.867,-3.8606,-3.8603,-3.86,-3.8597,-3.8626,-3.863,-3.8634,-3.8721,0,0,-3.8647,-3.8648,0,0,0,0,0,0,0,0,-3.8564,-3.857,-3.8615,-3.8614,-3.8611,-3.863,-3.8639,-3.8687,-3.8607,-3.8608,-3.8599,-3.8596,-3.8631,-3.8635,-3.8647,-3.8723,-3.8724,-3.8647,-3.865,-3.8651,-3.8652,0,0,0,0,0,0,0,-3.8561,-3.8569,-3.8651,-3.8616,-3.8614,-3.8597,-3.8599,-3.8648,-3.8636,-3.8607,-3.8603,-3.8607,-3.863,-3.8644,-3.8647,-3.8724,-3.8647,-3.8651,-3.8653,-3.8655,-3.887,-3.8874,0,0,0,0,0,0,-3.8562,-3.8567,-3.865,-3.8652,-3.858,-3.8601,-3.8604,-3.8627,-3.8636,-3.8634,-3.861,-3.8604,-3.8638,-3.8643,-3.8648,-3.8749,-3.8651,-3.8655,-3.8657,-3.8867,-3.8871,-3.8875,0,0,0,0,0,0,-3.856,-3.857,-3.8649,-3.8608,-3.8617,-3.8607,-3.8633,-3.863,-3.8643,-3.8638,-3.8635,-3.8626,-3.8636,-3.8643,-3.8703,-3.8749,-3.8657,-3.8661,-3.8863,-3.8868,-3.8873,-3.8953,0,0,0,0,0,0,-3.8557,-3.857,-3.8603,-3.8609,-3.8619,-3.8704,-3.8636,-3.8632,-3.8651,-3.8643,-3.8652,-3.8651,-3.8634,-3.8698,-3.8707,-3.8753,-3.8664,-3.8859,-3.8865,-3.8871,-3.8946,-3.896,-3.8972,0,0,0,0,0,-3.8553,-3.8625,-3.8605,-3.8616,-3.8661,-3.8707,-3.8713,-3.8692,-3.8655,-3.8688,-3.8684,-3.8651,-3.8743,-3.8704,-3.8715,-3.8763,-3.8856,-3.8864,-3.8871,-3.894,-3.8957,-3.8971,0,0,0,0,0,0,-3.8624,-3.8625,-3.8604,-3.868,-3.8694,-3.8696,-3.8738,-3.8711,-3.8736,-3.8728,-3.8701,-3.8704,-3.8769,-3.8772,-3.8729,-3.8846,-3.8793,-3.8803,-3.8842,-3.8858,-3.8871,-3.8868,-3.8667,0,0,0,0,0,-3.8649,-3.8687,-3.8685,-3.8753,-3.8761,-3.8748,-3.8767,-3.875,-3.8764,-3.8769,-3.877,-3.8784,-3.8815,-3.8837,-3.8866,-3.8946,-3.8946,-3.8984,-3.8997,-3.9007,-3.9016,-3.9057,-3.9073,-3.8899,-3.8899,-3.8899,0,0,-3.87,-3.8705,-3.8731,-3.8767,-3.8776,-3.8815,-3.8754,-3.8798,-3.8826,-3.8776,-3.8833,-3.8834,-3.8847,-3.8917,-3.8948,-3.8922,-3.9064,-3.9017,-3.9025,-3.9028,-3.9066,-3.9082,-3.9097,-3.8904,-3.8903,-3.8902,0,0,-3.8813,-3.8822,-3.8878,-3.8888,-3.8902,-3.8893,-3.8906,-3.8913,-3.8911,-3.8968,-3.8931,-3.8964,-3.902,-3.903,-3.9043,-3.9158,-3.9128,-3.9168,-3.9235,-3.9275,-3.9289,-3.9301,-3.9341,-3.9355,-3.9177,-3.9177,-3.9177,0,-3.8875,-3.8933,-3.891,-3.8956,-3.8972,-3.8929,-3.8984,-3.8995,-3.9018,-3.903,-3.9,-3.9068,-3.9074,-3.9145,-3.9173,-3.9185,-3.9199,-3.9167,-3.9289,-3.9301,-3.9311,-3.9349,-3.9364,-3.9182,-3.9181,-3.9181,-3.918,0,-3.9007,-3.9047,-3.9091,-3.9114,-3.9135,-3.9186,-3.917,-3.9194,-3.9174,-3.9168,-3.9226,-3.9231,-3.926,-3.9276,-3.9258,-3.9344,-3.9327,-3.9294,-3.9239,-3.9333,-3.9368,-3.9382,-3.9189,-3.9187,-3.9186,-3.9184,0,0,-3.9166,-3.9175,-3.9191,-3.9201,-3.9212,-3.9243,-3.9291,-3.9319,-3.9339,-3.9356,-3.9395,-3.9443,-3.9411,-3.9426,-3.9408,-3.9444,-3.9533,-3.9405,-3.9405,-3.9428,-3.9626,-3.9651,-3.9668,-3.9513,-3.9515,-3.9518,-3.9625,0,-3.9277,-3.936,-3.934,-3.9422,-3.9458,-3.9416,-3.9458,-3.9469,-3.9465,-3.9494,-3.9488,-3.9522,-3.9478,-3.9486,-3.952,-3.9515,-3.9572,-3.9507,-3.9547,-3.9549,-3.9544,-3.9686,-3.9713,-3.9813,-3.9638,-3.9641,-3.9642,0,-3.9417,-3.9439,-3.9525,-3.9529,-3.9543,-3.9581,-3.9605,-3.9633,-3.9645,-3.9638,-3.9654,-3.9629,-3.9675,-3.9621,-3.9684,-3.964,-3.9655,-3.9655,-3.9659,-3.9661,-3.9601,-3.9691,-3.9845,-3.986,-3.9664,-3.9662,-3.966,0,-3.9523,-3.9574,-3.9631,-3.9641,-3.9648,-3.9675,-3.9679,-3.9687,-3.9705,-3.9725,-3.9736,-3.9761,-3.9775,-3.9795,-3.9777,-3.9739,-3.9841,-3.9786,-3.9837,-3.9837,-3.9859,-3.9858,-4.0017,-3.9871,-3.9871,-3.9871,-3.987,0,-3.9648,-3.9702,-3.9679,-3.9714,-3.9772,-3.9748,-3.9806,-3.9805,-3.9813,-3.9846,-3.9812,-3.9844,-3.9818,-3.9848,-3.9834,-3.9887,-3.9894,-3.9889,-3.9885,-3.9892,-3.9892,-3.9901,-3.9893,-3.9875,-3.9874,-3.9873,-3.9872,0,-3.9776,-3.9763,-3.9822,-3.9824,-3.9825,-3.9868,-3.9868,-3.99,-3.9893,-3.9935,-3.9944,-3.9932,-3.9964,-3.9948,-3.9983,-3.9973,-4.0041,-4.0028,-4.0037,-4.0033,-4.0084,-4.0079,-4.0253,-4.0274,-4.0116,-4.0118,-4.0119,0,-3.9856,-3.9896,-3.9902,-3.9922,-3.9928,-3.9961,-3.9978,-3.9956,-3.9975,-3.999,-4.002,-4.005,-4.0072,-4.0126,-4.012,-4.0145,-4.0132,-4.0191,-4.0135,-4.014,-4.0131,-4.0128,-4.0131,-4.0202,-4.0204,-4.0205,-4.0206,0,-4.0,-3.9991,-4.0018,-4.0042,-4.0064,-4.0082,-4.0097,-4.0115,-4.0093,-4.0117,-4.0149,-4.0167,-4.0201,-4.0231,-4.0253,-4.0256,-4.0227,-4.0224,-4.0237,-4.0244,-4.0247,-4.0245,-4.0067,-4.022,-4.0219,-4.0218,-4.0217,-4.0216,-4.0105,-4.0138,-4.0147,-4.0177,-4.0186,-4.0201,-4.023,-4.0226,-4.0253,-4.0279,-4.0264,-4.0302,-4.0311,-4.0337,-4.0344,-4.0373,-4.0349,-4.0368,-4.0372,-4.0377,-4.0383,-4.0244,-4.0377,-4.0376,-4.0376,-4.0376,-4.0375,0,-4.0245,-4.0248,-4.0277,-4.0299,-4.0322,-4.0294,-4.0308,-4.033,-4.0364,-4.0374,-4.0397,-4.0434,-4.0462,-4.0458,-4.0483,-4.0507,-4.0494,-4.0514,-4.0511,-4.0512,-4.0404,-4.039,-4.0524,-4.0524,-4.0524,-4.0524,-4.0524,-4.0523,-4.0321,-4.0375,-4.0367,-4.0424,-4.0426,-4.0463,-4.0474,-4.0487,-4.0495,-4.0537,-4.0561,-4.0558,-4.0562,-4.0587,-4.0611,-4.0609,-4.0619,-4.0643,-4.0636,-4.0535,-4.052,-4.0506,-4.0493,-4.0646,-4.0646,-4.0742,-4.0743,-4.0744]}]]